Regional Weather Roundup
Issued by NWS Goodland, KS

Home | Current Version | Previous Version | Graphics & Text | Print | Product List | Glossary On
Versions: 1 2 3 4 5 6 7 8 9 10 11 12 13 14 15 16 17 18 19 20 21 22 23 24 25 26 27 28 29 30 31 32 33 34 35 36 37 38 39 40 41 42 43 44 45 46 47 48 49 50
000
ASUS43 KGLD 291708
RWRGLD

GOODLAND FORECAST AREA HOURLY WEATHER ROUNDUP
NATIONAL WEATHER SERVICE GOODLAND KS
1100 AM MDT TUE JUL 29 2014

...OFFICIAL OBSERVATIONS...

CITY           SKY/WX    TMP DP  RH WIND       PRES   REMARKS
GOODLAND KS    PTSUNNY   79  63  57 S14G21    30.21F
HILL CITY KS   SUNNY     82  58  43 S10G20    30.20
IMPERIAL NEB   CLOUDY    73  58  59 SE12      30.23F
MCCOOK NEB     SUNNY     78  58  49 E9        30.21F
AKRON CO       SUNNY     79  58  48 SE12G18   30.23F
BURLINGTON CO  SUNNY     77  63  61 SE13      30.23S
LIMON CO       MOSUNNY   77  58  51 VRB7      30.26F
$$

...UNOFFICIAL OBSERVATIONS...

CITY           SKY/WX    TMP DP  RH WIND       PRES   REMARKS
COLBY KS       PTSUNNY   82  64  54 SE9       30.21F
GOVE KS          N/A     80  32  17 MISG        N/A
LENORA KS        N/A     78  32  18 MISG        N/A
NORTON KS      SUNNY     81  52  36 SE8       30.20F
OBERLIN KS     FAIR      81  57  44 SE8G16    30.20F
ST FRANCIS KS  MOSUNNY   81  59  47 E7        30.19F
TRIBUNE KS     SUNNY     77 N/A N/A S13       30.22S
WAKEENEY KS      N/A     81  53  37 MISG        N/A
TRENTON NEB      N/A     77  32  19 E10         N/A
KIT CARSON CO    N/A     77  63  61 CALM        N/A
WRAY CO          N/A     82  61  47 SE3       30.21
YUMA CO          N/A     77  62  59 SE9G16      N/A
$$


USA.gov is the U.S. government's official web portal to all federal, state and local government web resources and services.